Regional Weather Roundup
Issued by NWS Northern Indiana

Home | Current Version | Previous Version | Graphics & Text | Print | Product List | Glossary Off
Versions: 1 2 3 4 5 6 7 8 9 10 11 12 13 14 15 16 17 18 19 20 21 22 23 24 25 26 27 28 29 30 31 32 33 34 35 36 37 38 39 40 41 42 43 44 45 46 47 48 49 50

000
ASUS43 KIWX 261110
RWRIWX

KIWX WEATHER ROUNDUP
NATIONAL WEATHER SERVICE NORTHERN INDIANA
600 AM EST FRI DEC 26 2014

NOTE: "FAIR" INDICATES FEW OR NO CLOUDS BELOW 12,000 FEET WITH NO
SIGNIFICANT WEATHER AND/OR OBSTRUCTIONS TO VISIBILITY.

* THESE STATIONS ARE NOT UNDER NWS QUALITY CONTROL. THEY ALSO MAY NOT
  REPORT WEATHER SUCH AS PRECIPITATION OR FOG.

INZ001>027-261200-
NORTHERN INDIANA

CITY           SKY/WX    TMP DP  RH WIND       PRES   REMARKS
GARY*          CLEAR     39  30  70 S8        30.03R
VALPARAISO     CLEAR     33  30  88 S7        30.05R WCI  27
MICHIGAN CITY* CLEAR     36  30  80 S12G18    30.04S
LAPORTE*       PTCLDY    36  33  90 S7        30.05S
KNOX*          CLEAR     34  29  82 S13       30.05R WCI  25
SOUTH BEND     CLEAR     36  31  82 S9        30.07R
GOSHEN         CLEAR     35  31  85 S12       30.07R WCI  27
MONTICELLO*    CLEAR     35  32  89 S10       30.06F WCI  28
LOGANSPORT*    CLEAR     34  30  86 S10       30.09F WCI  26
ROCHESTER*     CLEAR     37  34  87 S9        30.08S
WARSAW*        CLEAR     34  32  93 S6        30.08S WCI  29
ANGOLA*        CLEAR     34  30  86 S8        30.08S WCI  27
FORT WAYNE     CLEAR     34  31  88 S13       30.12S WCI  25
HUNTINGTON*    CLEAR     35  32  89 S7        30.11F WCI  29
PERU/GRISSOM   CLEAR     37  37 100 S14G23    30.08F
MARION*        CLEAR     34  31  90 S13       30.12F WCI  25

$$
INZ028>050-261200-
CENTRAL INDIANA

CITY           SKY/WX    TMP DP  RH WIND       PRES   REMARKS
LAFAYETTE      CLEAR     36  32  85 S5        30.09F
KOKOMO*        CLEAR     36  28  75 S13       30.10F
MUNCIE*        CLEAR     36  31  82 S12G23    30.14S
INDIANAPOLIS   CLEAR     33  30  88 S10       30.13F WCI  25

$$
MIZ043>046-050>051-056>058-064>065-071>073-077>080-261200-
SOUTHWEST LOWER MICHIGAN

CITY           SKY/WX    TMP DP  RH WIND       PRES   REMARKS
BATTLE CREEK   PTCLDY    34  30  85 S13       30.05F WCI  25
BENTON HARBOR  CLEAR     35  32  88 S10       30.04R WCI  27
COLDWATER*     CLEAR     34  31  91 MISG      30.08R
HILLSDALE*     CLEAR     32  32 100 S8        30.08S WCI  25
HOLLAND        PTCLDY    38  32  79 S9        30.03R
GRAND RAPIDS   MOCLDY    36  31  82 S10       30.03S
KALAMAZOO      CLEAR     34  30  85 S10       30.06R WCI  26
STURGIS*       CLEAR     34  30  86 S7        30.07R WCI  28
THREE RIVERS*  FAIR      33  31  92 S8        30.07R WCI  26

$$
OHZ001>008-015>018-024>025-261200-
NORTHWEST OHIO

CITY           SKY/WX    TMP DP  RH WIND       PRES   REMARKS
WAUSEON*       FAIR      32  32 100 S12       30.13R WCI  23
DEFIANCE       CLEAR     34  30  85 S9        30.14S WCI  27
FINDLAY        CLEAR     34  30  85 S12       30.16S WCI  25
TOLEDO EXPRESS CLEAR     31  29  92 S7        30.14S WCI  24
TOLEDO METCALF CLEAR     31  27  85 S9        30.16S WCI  23
LIMA           CLEAR     34  29  82 S10       30.16F WCI  26

$$
AND FOR LAKE MICHIGAN COASTAL AND OPEN LAKE BUOY OBSERVATIONS

STATION/POSITION TEMP    WIND        PRES    VSBY  WAVE
                 AIR SEA DIR/SP/G                  HT/PER
                 (F)     (DEG/KT/KT) (MB)    (MI)  (FT/S)
CALUMET HARBOR    37     190/  9/ 14 1015.1S
MICHIGAN CITY     37     160/ 19/ 25   N/A
SAINT JOSEPH      37     150/  4/  9 1017.6S

$$
&&



USA.gov is the U.S. government's official web portal to all federal, state and local government web resources and services.